Stations météo

Publicité
Kleine Brogel, Belgique (6479): Température de l'air & dewpoint: 17.10.2018 22:00:00 - 23.10.2018 22:00:00 (CEST)Kleine Brogel, Belgique (6479): Vitesse du vent & gusts: 17.10.2018 22:00:00 - 23.10.2018 22:00:00 (CEST)Kleine Brogel, Belgique (6479): Direction du vent: 17.10.2018 22:00:00 - 23.10.2018 22:00:00 (CEST)Kleine Brogel, Belgique (6479): reduced air pressure: 17.10.2018 22:00:00 - 23.10.2018 22:00:00 (CEST)Kleine Brogel, Belgique (6479): visibility: 17.10.2018 22:00:00 - 23.10.2018 22:00:00 (CEST)
Date & Time tt [°C] td [°C] ff [km/h] ff [knt] fx [km/h] fx [knt] dd ppp [hPa] vv [km]
23.10.2018 22:00:00 12,8 9,0 18 10 29 16 WSW 1025,2 20
23.10.2018 21:00:00 12,8 8,9 18 10 29 16 WSW 1025,2 20
23.10.2018 20:00:00 13,1 9,1 14 8 - - W 1025,4 20
23.10.2018 19:00:00 13,2 8,7 14 8 36 19 W 1025,2 20
23.10.2018 18:00:00 13,3 8,4 18 10 36 19 W 1024,5 20
23.10.2018 17:00:00 13,3 8,2 22 12 - - W 1024,2 20
23.10.2018 16:00:00 14,1 8,0 22 12 43 23 W 1025,0 20
23.10.2018 15:00:00 14,2 8,0 22 12 43 23 W 1024,7 10
23.10.2018 14:00:00 13,1 7,5 28 15 - - WSW 1025,0 10
23.10.2018 13:00:00 13,4 7,3 25 14 40 21 WSW 1025,7 20
23.10.2018 12:00:00 11,0 6,6 25 14 36 19 WSW 1027,2 20
23.10.2018 11:00:00 9,8 6,0 25 14 - - WSW 1027,2 20
23.10.2018 10:00:00 9,0 5,8 18 10 32 18 WSW 1028,0 20
23.10.2018 09:00:00 7,5 4,9 18 10 25 14 SW 1028,4 20
23.10.2018 08:00:00 6,9 4,6 18 10 - - SW 1028,5 15
23.10.2018 07:00:00 6,4 4,2 18 10 29 16 SW 1029,0 15
23.10.2018 06:00:00 6,2 4,0 18 10 22 12 SW 1030,0 20
23.10.2018 05:00:00 5,4 3,8 11 6 - - SW 1031,2 20
23.10.2018 04:00:00 5,3 3,6 11 6 14 8 SW 1031,7 20
23.10.2018 03:00:00 5,0 3,5 7 4 14 8 SW 1033,0 11
23.10.2018 02:00:00 4,0 3,3 7 4 - - SW 1034,0 15
23.10.2018 01:00:00 3,7 2,6 7 4 7 4 N 1034,5 11
23.10.2018 00:00:00 4,1 3,1 4 2 7 4 N 1035,0 16
22.10.2018 23:00:00 5,1 3,7 7 4 - - N 1035,0 20
22.10.2018 22:00:00 7,0 4,4 4 2 7 4 N 1034,9 20
22.10.2018 21:00:00 8,4 4,7 4 2 11 6 N 1035,0 20
22.10.2018 20:00:00 10,0 5,7 4 2 - - N 1034,5 20
22.10.2018 19:00:00 12,0 6,0 7 4 14 8 N 1033,9 20
22.10.2018 18:00:00 13,5 5,0 7 4 25 14 NNW 1033,7 20
22.10.2018 17:00:00 14,8 4,3 11 6 - - N 1033,2 20
22.10.2018 16:00:00 15,7 4,4 11 6 25 14 N 1032,9 20
22.10.2018 15:00:00 15,4 6,1 7 4 29 16 N 1032,9 20
22.10.2018 14:00:00 14,3 6,8 14 8 - - NNE 1033,0 20
22.10.2018 13:00:00 14,7 9,4 22 12 32 18 NE 1032,9 20
22.10.2018 12:00:00 14,4 9,4 22 12 32 18 NNE 1032,7 20
22.10.2018 11:00:00 - - - - - - - - -
22.10.2018 10:00:00 - - - - - - - - -
22.10.2018 09:00:00 12,1 11,7 14 8 25 14 N 1030,2 1,6
22.10.2018 08:00:00 12,6 11,4 7 4 - - N 1029,0 5
22.10.2018 07:00:00 12,3 10,4 7 4 18 10 NNW 1028,5 6
22.10.2018 06:00:00 11,6 8,1 4 2 7 4 N 1028,0 8
22.10.2018 05:00:00 10,3 8,0 4 2 - - - 1027,7 9
22.10.2018 04:00:00 10,6 7,3 4 2 4 2 N 1027,7 11
22.10.2018 03:00:00 10,5 7,8 4 2 4 2 N 1027,7 12
22.10.2018 02:00:00 10,1 7,7 4 2 - - N 1027,5 13
22.10.2018 01:00:00 10,3 7,4 4 2 4 2 N 1027,5 11
22.10.2018 00:00:00 10,1 7,6 4 2 4 2 N 1027,7 12
21.10.2018 23:00:00 9,1 6,9 0 0 - - N 1027,5 11
21.10.2018 22:00:00 7,4 5,6 0 0 0 0 N 1027,4 9
21.10.2018 21:00:00 8,3 6,0 4 2 0 0 N 1027,2 10
21.10.2018 20:00:00 9,3 6,0 4 2 - - N 1027,2 19
21.10.2018 19:00:00 11,5 6,7 0 0 0 0 N 1027,2 20
21.10.2018 18:00:00 14,3 6,3 4 2 7 4 N 1027,0 19
21.10.2018 17:00:00 16,1 5,0 4 2 - - N 1027,2 20
21.10.2018 16:00:00 16,6 5,1 4 2 11 6 N 1027,7 20
21.10.2018 15:00:00 16,0 5,4 7 4 11 6 ENE 1028,0 19
21.10.2018 14:00:00 15,5 5,4 7 4 - - ENE 1028,7 19
21.10.2018 13:00:00 14,1 6,0 7 4 14 8 ENE 1029,5 16
21.10.2018 12:00:00 13,2 6,5 4 2 7 4 N 1030,0 11
21.10.2018 11:00:00 11,2 7,0 4 2 - - N 1030,2 10
21.10.2018 10:00:00 7,6 5,9 2 1 0 0 - 1030,2 4,2
21.10.2018 09:00:00 3,9 3,5 4 2 4 2 N 1030,0 2,3
21.10.2018 08:00:00 2,9 2,3 0 0 - - N 1029,7 2,0
21.10.2018 07:00:00 2,7 2,1 4 2 4 2 N 1030,2 2,3
21.10.2018 06:00:00 2,8 2,2 4 2 0 0 N 1030,5 1,8
21.10.2018 05:00:00 3,5 2,9 2 1 - - - 1030,5 1,9
21.10.2018 04:00:00 3,3 2,8 2 1 4 2 - 1030,9 1,9
21.10.2018 03:00:00 3,5 2,8 4 2 4 2 N 1031,2 3,7
21.10.2018 02:00:00 3,9 3,1 0 0 - - N 1031,4 1,3
21.10.2018 01:00:00 4,3 3,7 0 0 0 0 N 1031,7 2,5
21.10.2018 00:00:00 4,1 3,6 2 1 4 2 - 1031,7 5
20.10.2018 23:00:00 5,2 4,5 2 1 - - - 1032,0 6
20.10.2018 22:00:00 5,9 4,9 4 2 4 2 N 1032,0 7
20.10.2018 21:00:00 6,5 5,1 4 2 4 2 N 1031,7 19
20.10.2018 20:00:00 8,1 5,9 4 2 - - N 1031,7 20
20.10.2018 19:00:00 10,3 6,0 0 0 7 4 N 1031,5 10
20.10.2018 18:00:00 13,5 6,0 4 2 11 6 N 1031,2 20
20.10.2018 17:00:00 14,6 5,3 4 2 - - N 1031,2 20
20.10.2018 16:00:00 14,9 5,4 4 2 11 6 N 1031,4 20
20.10.2018 15:00:00 15,4 6,5 4 2 11 6 N 1031,5 20
20.10.2018 14:00:00 14,9 6,2 4 2 - - N 1032,2 20
20.10.2018 13:00:00 13,6 6,1 4 2 11 6 N 1032,2 19
20.10.2018 12:00:00 12,0 6,9 4 2 7 4 N 1032,5 10
20.10.2018 11:00:00 9,8 7,2 4 2 - - N 1032,5 7
20.10.2018 10:00:00 6,6 6,3 4 2 4 2 N 1032,0 4,0
20.10.2018 09:00:00 4,0 3,5 2 1 0 0 - 1031,2 1,4
20.10.2018 08:00:00 3,0 2,6 4 2 - - N 1031,0 1,6
20.10.2018 07:00:00 3,4 3,0 0 0 4 2 N 1030,5 2,9
20.10.2018 06:00:00 4,1 3,7 4 2 4 2 N 1029,5 0,2
20.10.2018 05:00:00 4,8 4,3 0 0 - - N 1029,0 0,7
20.10.2018 04:00:00 5,5 4,8 4 2 4 2 N 1029,0 5
20.10.2018 03:00:00 6,4 5,8 2 1 4 2 - 1028,4 0,9
20.10.2018 02:00:00 7,5 6,5 4 2 - - N 1028,0 10
20.10.2018 01:00:00 8,6 7,3 4 2 7 4 N 1028,2 13
20.10.2018 00:00:00 9,8 7,4 4 2 7 4 N 1027,5 16
19.10.2018 23:00:00 11,4 7,9 4 2 - - N 1027,5 18
19.10.2018 22:00:00 11,8 8,3 4 2 7 4 N 1027,0 18
19.10.2018 21:00:00 13,3 8,5 4 2 11 6 N 1026,5 17
19.10.2018 20:00:00 13,6 8,9 4 2 - - N 1025,9 17
19.10.2018 19:00:00 14,0 8,9 4 2 4 2 N 1025,2 19
19.10.2018 18:00:00 14,5 8,5 4 2 7 4 - 1024,7 10
19.10.2018 17:00:00 16,2 8,2 4 2 - - N 1024,5 20
19.10.2018 16:00:00 16,1 8,6 4 2 18 10 N 1024,2 20
19.10.2018 15:00:00 16,3 8,9 4 2 14 8 N 1024,7 18
19.10.2018 14:00:00 15,8 9,9 4 2 - - N 1025,0 15
19.10.2018 13:00:00 15,4 9,7 4 2 11 6 N 1025,4 15
19.10.2018 12:00:00 13,1 9,1 4 2 11 6 N 1025,5 11
19.10.2018 11:00:00 12,1 8,3 7 4 - - E 1025,9 8
19.10.2018 10:00:00 10,2 7,9 7 4 11 6 NNE 1025,7 12
19.10.2018 09:00:00 9,8 7,8 7 4 11 6 NE 1025,4 12
19.10.2018 08:00:00 9,9 7,9 7 4 - - NNE 1025,2 12
19.10.2018 07:00:00 10,3 8,1 7 4 11 6 ENE 1025,2 14
19.10.2018 06:00:00 10,6 8,2 11 6 14 8 NE 1025,0 15
19.10.2018 05:00:00 11,0 8,2 7 4 - - NNE 1025,0 17
19.10.2018 04:00:00 11,6 8,2 11 6 14 8 NNE 1024,7 20
19.10.2018 03:00:00 12,1 8,4 11 6 14 8 NE 1024,7 20
19.10.2018 02:00:00 12,5 8,9 7 4 - - NE 1025,0 20
19.10.2018 01:00:00 12,8 9,4 7 4 18 10 NE 1025,2 20
19.10.2018 00:00:00 13,3 9,5 14 8 22 12 NE 1025,2 20
18.10.2018 23:00:00 13,6 8,6 14 8 - - NE 1025,5 20
18.10.2018 22:00:00 13,8 9,7 11 6 14 8 NNE 1025,2 20
18.10.2018 21:00:00 13,8 10,7 7 4 11 6 NNE 1025,0 20
18.10.2018 20:00:00 13,8 10,8 7 4 - - NNE 1024,7 20
18.10.2018 19:00:00 14,1 10,5 11 6 18 10 NE 1024,7 20
18.10.2018 18:00:00 14,6 10,8 11 6 22 12 NNE 1024,5 20
18.10.2018 17:00:00 15,1 10,7 11 6 - - NNE 1024,5 20
18.10.2018 16:00:00 15,0 11,3 11 6 25 14 NNE 1024,7 20
18.10.2018 15:00:00 15,3 11,6 14 8 25 14 NNE 1024,7 20
18.10.2018 14:00:00 17,1 10,7 14 8 - - NNE 1024,5 20
18.10.2018 13:00:00 16,1 11,1 14 8 25 14 NE 1024,9 20
18.10.2018 12:00:00 15,3 11,9 14 8 22 12 NNE 1025,0 15
18.10.2018 11:00:00 14,6 11,9 11 6 - - NNE 1024,7 14
18.10.2018 10:00:00 12,8 11,4 7 4 14 8 NNE 1024,5 5
18.10.2018 09:00:00 10,6 10,3 5 3 7 4 N 1024,0 3,5
18.10.2018 08:00:00 10,6 10,2 4 2 - - N 1023,8 7
18.10.2018 07:00:00 11,6 10,7 4 2 11 6 N 1023,2 8
18.10.2018 06:00:00 13,1 11,5 7 4 11 6 N 1023,1 8
18.10.2018 05:00:00 13,1 11,7 4 2 - - N 1022,7 7
18.10.2018 04:00:00 13,3 11,8 7 4 11 6 N 1022,7 8
18.10.2018 03:00:00 13,3 11,7 4 2 11 6 N 1022,7 8
18.10.2018 02:00:00 13,3 11,8 8 4 - - NNW 1022,3 8
18.10.2018 01:00:00 12,7 11,7 7 4 11 6 N 1022,2 7
18.10.2018 00:00:00 12,5 11,5 4 2 7 4 - 1022,2 7
17.10.2018 23:00:00 12,9 11,8 4 2 - - N 1021,8 9
17.10.2018 22:00:00 13,6 12,1 4 2 11 6 N 1021,6 10

tt = Température de l'air
td = dewpoint
ff = Vitesse du vent
fx = gusts
dd = Direction du vent
ppp = reduced air pressure
vv = visibility

stations d'obs. à proximité